Regional Weather Roundup
Issued by NWS Green Bay, WI

Home | Current Version | Previous Version | Text Only | Print | Product List | Glossary On
Versions: 1 2 3 4 5 6 7 8 9 10 11 12 13 14 15 16 17 18 19 20 21 22 23 24 25 26 27 28 29 30 31 32 33 34 35 36 37 38 39 40 41 42 43 44 45 46 47 48 49 50
000
ASUS43 KGRB 261200
RWRGRB

NORTH-CENTRAL AND NORTHEAST WISCONSIN REGIONAL WEATHER ROUNDUP
NATIONAL WEATHER SERVICE GREEN BAY WI
700 AM CDT FRI AUG 26 2016

WIZ005-009-010>012-018-019-261300-
NORTH CENTRAL WISCONSIN

CITY           SKY/WX    TMP DP  RH WIND       PRES   REMARKS
IRONWOOD       CLOUDY    56  54  93 W9        30.12R
MANITOWISH WTR NOT AVBL
ARBOR VITAE    NOT AVBL
EAGLE RIVER    NOT AVBL
LAND O LAKES   NOT AVBL
RHINELANDER    CLEAR     53  53 100 W6        30.14R
PHILLIPS       CLEAR     52  52 100 CALM      30.14R
ANTIGO         NOT AVBL
TOMAHAWK       NOT AVBL
MERRILL        CLEAR     50  50 100 W3        30.15R
$$

WIZ013-073-261300-
NORTHEAST WISCONSIN

CITY           SKY/WX    TMP DP  RH WIND       PRES   REMARKS
IRON MOUNTAIN  CLEAR     53  50  89 CALM      30.09R
MARINETTE      PTCLDY   N/A N/A N/A CALM      30.11R
$$

WIZ017-030-035>037-045-261300-
CENTRAL WISCONSIN

CITY           SKY/WX    TMP DP  RH WIND       PRES   REMARKS
MEDFORD        NOT AVBL
WAUSAU         CLEAR     55  53  93 W6        30.14R
MOSINEE        CLEAR     52  52 100 VRB3      30.16R
MARSHFIELD     CLEAR     52  50  93 SW3       30.16R FOG
WISC RAPIDS    CLEAR     56  55  97 W3        30.17R
STEVENS POINT  NOT AVBL
WAUPACA        NOT AVBL
SHAWANO        NOT AVBL
CLINTONVILLE   CLEAR     54  52  94 SW3       30.14R
WAUTOMA        CLOUDY    54  53  97 CALM      30.17R
$$

WIZ038-039-048-051-261300-
FOX VALLEY

CITY           SKY/WX    TMP DP  RH WIND       PRES   REMARKS
NWS GREEN BAY  CLEAR     57  57 100 W6        30.13R
APPLETON       PTCLDY    55  55 100 W7        30.13R
OSHKOSH        PTCLDY    59  55  87 W3        30.15R
FOND DU LAC    CLEAR     59  55  87 W5        30.16R
$$

WIZ022-050-052-261300-
EAST CENTRAL WISCONSIN

CITY           SKY/WX    TMP DP  RH WIND       PRES   REMARKS
EPHRAIM        NOT AVBL
WASHINGTON ISL NOT AVBL
STURGEON BAY   PTCLDY    58  56  93 CALM      30.12R
MANITOWOC      NOT AVBL
SHEBOYGAN      CLEAR     58  56  93 W3        30.14S
$$

LMZ563-521-522-541>543-261300-
LAKESHORE

STATION/POSITION TIME  TEMP    WIND        PRES    VSBY  WAVE
                       AIR SEA DIR/SP/G                  HT/PER
                 (UTC) (F)     (DEG/KT/KT) (MB)    (MI)  (FT/S)
SHEBOYGAN LKSHOR 1100   63     270/  5/  6 1019.8R
KEWAUNEE LKSHORE 1100   59     290/  3/  4 1019.0R
NORTHPORT PIER   1100   64     290/  7/ 10 1018.6R
N MID LAKE BUOY  1050   65 69  280/ 12/ 16 1017.6R         1/ 3
CHAMBERS ISLAND  1100   61     250/  4/  8 1018.6R
MENOMINEE LKSHOR 1100   60     250/  7/ 10 1018.1R
$$




USA.gov is the U.S. government's official web portal to all federal, state and local government web resources and services.